Main page
METAR-TAF:

METAR-TAF

Airports :

Noshahr, Iran

Noshahr Airport

latitude: 36-39-48N, longitude: 051-27-53E, elevation: 0 m

Current weather observation

The report was made 28 minutes ago, at 16:00 UTC
Calm wind
Temperature 10°C
Humidity 87%
Pressure 1021 hPa
Visibility 10 km or more
Few clouds at a height of 3000 ft

METAR: OINN 181600Z 00000KT 9999 FEW030 10/08 Q1021

Time: 19:58 (16:28 UTC)


TAF: missing

Weather observations and forecasts of more than 4000 airports (METAR and TAF reports).

The available stations are represented by yellow and red dots on the map.

Hover mouse over dot to see the name of the station.

Then click to see weather observations and forecasts.

To change the map : click on the green buttons with a black cross to zoom in, on the green button with a dash to zoom out, or on the green arrows for adjacent maps.


METAR-TAF: